Time,TemperatureF,DewpointF,PressureIn,WindDirection,WindDirectionDegrees,WindSpeedMPH,WindSpeedGustMPH,Humidity,HourlyPrecipIn,Conditions,Clouds,dailyrainin,SolarRadiationWatts/m^2,SoftwareType,DateUTC
2013-04-03 00:12:00,64.0,35.0,-100.00,ESE,122,3.0,5.0,34,-99.99,,,0.00,0.000000,,2013-04-03 04:12:00,
2013-04-03 00:23:00,64.0,35.0,-100.00,ESE,122,3.0,5.0,34,-99.99,,,0.00,0.000000,,2013-04-03 04:23:00,
2013-04-03 01:12:00,62.0,35.0,-100.00,ESE,114,1.0,4.0,36,-99.99,,,0.00,0.000000,,2013-04-03 05:12:00,
2013-04-03 01:22:00,62.0,35.0,-100.00,ESE,114,1.0,4.0,36,-99.99,,,0.00,0.000000,,2013-04-03 05:22:00,
2013-04-03 02:12:00,64.0,37.0,-100.00,ESE,113,4.0,6.0,36,-99.99,,,0.00,0.000000,,2013-04-03 06:12:00,
2013-04-03 02:22:00,64.0,37.0,-100.00,ESE,113,4.0,6.0,36,-99.99,,,0.00,0.000000,,2013-04-03 06:22:00,
2013-04-03 03:12:00,64.0,34.0,-100.00,ESE,109,5.0,7.0,33,-99.99,,,0.00,0.000000,,2013-04-03 07:12:00,
2013-04-03 03:22:00,64.0,34.0,-100.00,ESE,109,5.0,7.0,33,-99.99,,,0.00,0.000000,,2013-04-03 07:22:00,
2013-04-03 04:12:00,58.0,36.0,-100.00,South,176,4.0,6.0,44,0.00,,,0.00,0.000000,,2013-04-03 08:12:00,
2013-04-03 04:22:00,58.0,36.0,-100.00,South,176,4.0,6.0,44,0.00,,,0.00,0.000000,,2013-04-03 08:22:00,
2013-04-03 05:12:00,58.0,32.0,-100.00,ESE,114,4.0,6.0,37,-99.99,,,0.00,0.000000,,2013-04-03 09:12:00,
2013-04-03 05:22:00,58.0,32.0,-100.00,ESE,114,4.0,6.0,37,-99.99,,,0.00,0.000000,,2013-04-03 09:22:00,
2013-04-03 06:12:00,55.0,35.0,-100.00,East,97,2.0,6.0,46,-99.99,,,0.00,0.000000,,2013-04-03 10:12:00,
2013-04-03 06:22:00,55.0,35.0,-100.00,East,97,2.0,6.0,46,-99.99,,,0.00,0.000000,,2013-04-03 10:22:00,
2013-04-03 07:12:00,49.0,32.0,-100.00,SW,223,1.0,4.0,51,-99.99,,,0.00,0.000000,,2013-04-03 11:12:00,
2013-04-03 07:22:00,49.0,32.0,-100.00,SW,223,1.0,4.0,51,-99.99,,,0.00,0.000000,,2013-04-03 11:22:00,
2013-04-03 08:12:00,47.0,31.0,-100.00,East,82,2.0,6.0,53,-99.99,,,0.00,0.000000,,2013-04-03 12:12:00,
2013-04-03 08:22:00,47.0,31.0,-100.00,East,82,2.0,6.0,53,-99.99,,,0.00,0.000000,,2013-04-03 12:22:00,
2013-04-03 09:12:00,46.0,34.0,-100.00,South,189,1.0,5.0,62,-99.99,,,0.00,0.000000,,2013-04-03 13:12:00,
2013-04-03 09:22:00,46.0,34.0,-100.00,South,189,1.0,5.0,62,-99.99,,,0.00,0.000000,,2013-04-03 13:22:00,
2013-04-03 10:12:00,48.0,34.0,-100.00,ESE,112,2.0,4.0,59,-99.99,,,-99.99,10.000000,,2013-04-03 14:12:00,
2013-04-03 10:22:00,48.0,34.0,-100.00,ESE,112,2.0,4.0,59,-99.99,,,-99.99,10.000000,,2013-04-03 14:22:00,
2013-04-03 11:12:00,59.0,40.0,-100.00,WNW,285,2.0,4.0,49,-99.99,,,0.00,188.000000,,2013-04-03 15:12:00,
2013-04-03 11:22:00,59.0,40.0,-100.00,WNW,285,2.0,4.0,49,-99.99,,,0.00,188.000000,,2013-04-03 15:22:00,
2013-04-03 11:33:00,59.0,40.0,-100.00,WNW,285,2.0,4.0,49,-99.99,,,0.00,188.000000,,2013-04-03 15:33:00,
2013-04-03 11:42:00,59.0,40.0,-100.00,WNW,285,2.0,4.0,49,-99.99,,,0.00,188.000000,,2013-04-03 15:42:00,
2013-04-03 12:12:00,72.0,36.0,-100.00,North,6,4.0,5.0,27,-99.99,,,0.00,439.000000,,2013-04-03 16:12:00,
2013-04-03 12:23:00,72.0,36.0,-100.00,North,6,4.0,5.0,27,-99.99,,,0.00,439.000000,,2013-04-03 16:23:00,
2013-04-03 12:32:00,72.0,36.0,-100.00,North,6,4.0,5.0,27,-99.99,,,0.00,439.000000,,2013-04-03 16:32:00,
2013-04-03 12:43:00,72.0,36.0,-100.00,North,6,4.0,5.0,27,-99.99,,,0.00,439.000000,,2013-04-03 16:43:00,
2013-04-03 13:13:00,77.0,37.0,-100.00,NNW,347,6.0,9.0,24,0.00,,,0.00,678.000000,,2013-04-03 17:13:00,
2013-04-03 13:22:00,77.0,37.0,-100.00,NNW,347,6.0,9.0,24,0.00,,,0.00,678.000000,,2013-04-03 17:22:00,
2013-04-03 13:32:00,77.0,37.0,-100.00,NNW,347,6.0,9.0,24,0.00,,,0.00,678.000000,,2013-04-03 17:32:00,
2013-04-03 13:45:00,77.0,37.0,-100.00,NNW,347,6.0,9.0,24,0.00,,,0.00,678.000000,,2013-04-03 17:45:00,
2013-04-03 14:12:00,81.0,36.0,-100.00,NNW,346,9.0,13.0,20,0.00,,,0.00,873.000000,,2013-04-03 18:12:00,
2013-04-03 14:22:00,81.0,36.0,-100.00,NNW,346,9.0,13.0,20,0.00,,,0.00,873.000000,,2013-04-03 18:22:00,
2013-04-03 14:33:00,81.0,36.0,-100.00,NNW,346,9.0,13.0,20,0.00,,,0.00,873.000000,,2013-04-03 18:33:00,
2013-04-03 14:42:00,81.0,36.0,-100.00,NNW,346,9.0,13.0,20,0.00,,,0.00,873.000000,,2013-04-03 18:42:00,
2013-04-03 15:12:00,85.0,35.0,-100.00,North,354,7.0,14.0,17,0.00,,,0.00,1008.000000,,2013-04-03 19:12:00,
2013-04-03 15:22:00,85.0,35.0,-100.00,North,354,7.0,14.0,17,0.00,,,0.00,1008.000000,,2013-04-03 19:22:00,
2013-04-03 15:32:00,85.0,35.0,-100.00,North,354,7.0,14.0,17,0.00,,,0.00,1008.000000,,2013-04-03 19:32:00,
2013-04-03 15:42:00,85.0,35.0,-100.00,North,354,7.0,14.0,17,0.00,,,0.00,1008.000000,,2013-04-03 19:42:00,
2013-04-03 16:12:00,87.0,38.0,-100.00,NNW,338,8.0,14.0,18,0.00,,,0.00,1066.000000,,2013-04-03 20:12:00,
2013-04-03 16:22:00,87.0,38.0,-100.00,NNW,338,8.0,14.0,18,0.00,,,0.00,1066.000000,,2013-04-03 20:22:00,
2013-04-03 16:32:00,87.0,38.0,-100.00,NNW,338,8.0,14.0,18,0.00,,,0.00,1066.000000,,2013-04-03 20:32:00,
2013-04-03 16:42:00,87.0,38.0,-100.00,NNW,338,8.0,14.0,18,0.00,,,0.00,1066.000000,,2013-04-03 20:42:00,
2013-04-03 17:12:00,89.0,37.0,-100.00,NNW,329,8.0,13.0,16,0.00,,,0.00,1037.000000,,2013-04-03 21:12:00,
2013-04-03 17:22:00,89.0,37.0,-100.00,NNW,329,8.0,13.0,16,0.00,,,0.00,1037.000000,,2013-04-03 21:22:00,
2013-04-03 17:32:00,89.0,37.0,-100.00,NNW,329,8.0,13.0,16,0.00,,,0.00,1037.000000,,2013-04-03 21:32:00,
2013-04-03 17:42:00,89.0,37.0,-100.00,NNW,329,8.0,13.0,16,0.00,,,0.00,1037.000000,,2013-04-03 21:42:00,
2013-04-03 18:12:00,90.0,34.0,-100.00,North,357,8.0,13.0,14,0.00,,,0.00,961.000000,,2013-04-03 22:12:00,
2013-04-03 18:22:00,90.0,34.0,-100.00,North,357,8.0,13.0,14,0.00,,,0.00,961.000000,,2013-04-03 22:22:00,
2013-04-03 18:32:00,90.0,34.0,-100.00,North,357,8.0,13.0,14,0.00,,,0.00,961.000000,,2013-04-03 22:32:00,
2013-04-03 18:42:00,90.0,34.0,-100.00,North,357,8.0,13.0,14,0.00,,,0.00,961.000000,,2013-04-03 22:42:00,
2013-04-03 19:12:00,91.0,33.0,-100.00,NNW,344,7.0,14.0,13,0.00,,,0.00,803.000000,,2013-04-03 23:12:00,
2013-04-03 19:22:00,91.0,33.0,-100.00,NNW,344,7.0,14.0,13,0.00,,,0.00,803.000000,,2013-04-03 23:22:00,
2013-04-03 19:32:00,91.0,33.0,-100.00,NNW,344,7.0,14.0,13,0.00,,,0.00,803.000000,,2013-04-03 23:32:00,
2013-04-03 19:42:00,91.0,33.0,-100.00,NNW,344,7.0,14.0,13,0.00,,,0.00,803.000000,,2013-04-03 23:42:00,
2013-04-03 20:12:00,91.0,33.0,-100.00,NNE,31,6.0,12.0,13,0.00,,,0.00,589.000000,,2013-04-04 00:12:00,
2013-04-03 20:22:00,91.0,33.0,-100.00,NNE,31,6.0,12.0,13,0.00,,,0.00,589.000000,,2013-04-04 00:22:00,
2013-04-03 20:32:00,91.0,33.0,-100.00,NNE,31,6.0,12.0,13,0.00,,,0.00,589.000000,,2013-04-04 00:32:00,
2013-04-03 20:42:00,91.0,33.0,-100.00,NNE,31,6.0,12.0,13,0.00,,,0.00,589.000000,,2013-04-04 00:42:00,
2013-04-03 21:11:00,90.0,33.0,-100.00,NNE,30,5.0,10.0,13,0.00,,,0.00,341.000000,,2013-04-04 01:11:00,
2013-04-03 21:22:00,90.0,33.0,-100.00,NNE,30,5.0,10.0,13,0.00,,,0.00,341.000000,,2013-04-04 01:22:00,
2013-04-03 21:32:00,90.0,33.0,-100.00,NNE,30,5.0,10.0,13,0.00,,,0.00,341.000000,,2013-04-04 01:32:00,
2013-04-03 21:43:00,90.0,33.0,-100.00,NNE,30,5.0,10.0,13,0.00,,,0.00,341.000000,,2013-04-04 01:43:00,
2013-04-03 22:12:00,85.0,39.0,-100.00,East,101,1.0,7.0,20,0.00,,,0.00,104.000000,,2013-04-04 02:12:00,
2013-04-03 22:22:00,85.0,39.0,-100.00,East,101,1.0,7.0,20,0.00,,,0.00,104.000000,,2013-04-04 02:22:00,
2013-04-03 22:32:00,85.0,39.0,-100.00,East,101,1.0,7.0,20,0.00,,,0.00,104.000000,,2013-04-04 02:32:00,
2013-04-03 22:42:00,85.0,39.0,-100.00,East,101,1.0,7.0,20,0.00,,,0.00,104.000000,,2013-04-04 02:42:00,
2013-04-03 23:12:00,72.0,40.0,-100.00,ESE,121,2.0,4.0,31,0.00,,,0.00,2.000000,,2013-04-04 03:12:00,
2013-04-03 23:22:00,72.0,40.0,-100.00,ESE,121,2.0,4.0,31,0.00,,,0.00,2.000000,,2013-04-04 03:22:00,